| time (UTC) | temp F | wind direction | speed knots | gust knots | rain 1hr in | rain 24hr in | rain mn in | humidity % | barometer mb |
| 20260504024520 | 68 | 144 | 0.0 | 0.9 | 0.00 | 0.00 | 0.00 | 21 | 1003.1 |
| 20260504023019 | 69 | 317 | 0.0 | 0.9 | 0.00 | 0.00 | 0.00 | 19 | 1003.1 |
| 20260504021518 | 70 | 15 | 0.0 | 0.9 | 0.00 | 0.00 | 0.00 | 18 | 1003.0 |
| 20260504020019 | 71 | 21 | 0.9 | 2.6 | 0.00 | 0.00 | 0.00 | 19 | 1002.8 |
| 20260504014524 | 71 | 58 | 1.7 | 3.5 | 0.00 | 0.00 | 0.00 | 17 | 1002.5 |
| 20260504013017 | 72 | 345 | 0.0 | 2.6 | 0.00 | 0.00 | 0.00 | 17 | 1002.5 |
| 20260504011517 | 74 | 346 | 2.6 | 5.2 | 0.00 | 0.00 | 0.00 | 15 | 1002.4 |
| 20260504010015 | 74 | 29 | 0.9 | 2.6 | 0.00 | 0.00 | 0.00 | 15 | 1002.4 |
| 20260504004520 | 74 | 356 | 2.6 | 8.7 | 0.00 | 0.00 | 0.00 | 15 | 1002.6 |
| 20260504003014 | 74 | 302 | 7.0 | 12.2 | 0.00 | 0.00 | 0.00 | 14 | 1002.5 |
| 20260504001514 | 76 | 338 | 0.9 | 8.7 | 0.00 | 0.00 | 0.00 | 14 | 1002.5 |
| 20260504000013 | 77 | 234 | 1.7 | 9.6 | 0.00 | 0.00 | 0.00 | 13 | 1002.6 |
| 20260503234511 | 77 | 246 | 2.6 | 6.1 | 0.00 | 0.00 | 0.00 | 12 | 1002.7 |
| 20260503233016 | 77 | 230 | 2.6 | 9.6 | 0.00 | 0.00 | 0.00 | 12 | 1002.7 |
| 20260503231509 | 77 | 288 | 7.8 | 39.1 | 0.00 | 0.00 | 0.00 | 12 | 1002.8 |
| 20260503230009 | 77 | 259 | 2.6 | 10.4 | 0.00 | 0.00 | 0.00 | 11 | 1002.9 |
| 20260503224507 | 77 | 163 | 1.7 | 8.7 | 0.00 | 0.00 | 0.00 | 12 | 1003.0 |
| 20260503223006 | 77 | 238 | 2.6 | 10.4 | 0.00 | 0.00 | 0.00 | 12 | 1003.3 |
| 20260503221502 | 77 | 248 | 2.6 | 7.8 | 0.00 | 0.00 | 0.00 | 11 | 1003.7 |
| 20260503220002 | 77 | 215 | 7.8 | 15.6 | 0.00 | 0.00 | 0.00 | 12 | 1003.8 |
| 20260503214557 | 77 | 263 | 4.3 | 9.6 | 0.00 | 0.00 | 0.00 | 11 | 1004.1 |
| 20260503213055 | 76 | 268 | 1.7 | 7.0 | 0.00 | 0.00 | 0.00 | 12 | 1004.6 |
| 20260503211552 | 75 | 214 | 2.6 | 12.2 | 0.00 | 0.00 | 0.00 | 13 | 1005.2 |
| 20260503210049 | 76 | 327 | 4.3 | 12.2 | 0.00 | 0.00 | 0.00 | 12 | 1005.7 |
| 20260503204547 | 75 | 197 | 6.1 | 12.2 | 0.00 | 0.00 | 0.00 | 13 | 1006.0 |
| 20260503203054 | 74 | 281 | 5.2 | 13.0 | 0.00 | 0.00 | 0.00 | 13 | 1006.4 |
| 20260503201549 | 75 | 260 | 2.6 | 11.3 | 0.00 | 0.00 | 0.00 | 13 | 1006.6 |
| 20260503200041 | 75 | 257 | 6.1 | 12.2 | 0.00 | 0.00 | 0.00 | 13 | 1006.8 |
| 20260503194541 | 73 | 319 | 7.0 | 12.2 | 0.00 | 0.00 | 0.00 | 14 | 1006.9 |
| 20260503193038 | 74 | 329 | 7.8 | 13.9 | 0.00 | 0.00 | 0.00 | 13 | 1007.2 |
| 20260503191536 | 74 | 285 | 4.3 | 14.8 | 0.00 | 0.00 | 0.00 | 15 | 1007.5 |
| 20260503190031 | 73 | 305 | 6.1 | 14.8 | 0.00 | 0.00 | 0.00 | 14 | 1008.0 |
| 20260503184528 | 73 | 305 | 5.2 | 12.2 | 0.00 | 0.00 | 0.00 | 16 | 1008.4 |
| 20260503183025 | 72 | 322 | 6.1 | 15.6 | 0.00 | 0.00 | 0.00 | 15 | 1008.8 |
| 20260503181523 | 72 | 271 | 4.3 | 13.0 | 0.00 | 0.00 | 0.00 | 16 | 1009.1 |
| 20260503180020 | 70 | 307 | 10.4 | 18.2 | 0.00 | 0.00 | 0.00 | 17 | 1009.3 |
| 20260503174519 | 71 | 274 | 7.8 | 20.0 | 0.00 | 0.00 | 0.00 | 18 | 1009.5 |
| 20260503173017 | 71 | 329 | 8.7 | 15.6 | 0.00 | 0.00 | 0.00 | 17 | 1009.8 |
| 20260503171515 | 71 | 287 | 9.6 | 19.1 | 0.00 | 0.00 | 0.00 | 17 | 1010.1 |
| 20260503081558 | 45 | 269 | 0.9 | 2.6 | 0.00 | 0.00 | 0.00 | 56 | 1013.1 |
| 20260503071609 | 45 | 269 | 0.0 | 0.0 | 0.00 | 0.00 | 0.00 | 59 | 1013.4 |
| 20260503054549 | 51 | 30 | 2.6 | 4.3 | 0.00 | 0.00 | 0.00 | 42 | 1013.3 |
| 20260503053036 | 53 | 47 | 0.0 | 3.5 | 0.00 | 0.00 | 0.00 | 38 | 1013.4 |
| 20260503051536 | 55 | 66 | 0.9 | 5.2 | 0.00 | 0.00 | 0.00 | 33 | 1013.3 |
| 20260503050039 | 55 | 137 | 0.0 | 1.7 | 0.00 | 0.00 | 0.00 | 33 | 1013.4 |
| 20260503044534 | 55 | 137 | 0.0 | 0.0 | 0.00 | 0.00 | 0.00 | 33 | 1013.5 |
| 20260503043033 | 56 | 137 | 0.0 | 3.5 | 0.00 | 0.00 | 0.00 | 31 | 1013.6 |
| 20260503041538 | 57 | 142 | 1.7 | 4.3 | 0.00 | 0.00 | 0.00 | 30 | 1013.7 |
| 20260503040032 | 57 | 134 | 1.7 | 4.3 | 0.00 | 0.00 | 0.00 | 30 | 1013.8 |
| 20260503034532 | 59 | 153 | 2.6 | 6.1 | 0.00 | 0.00 | 0.00 | 27 | 1013.8 |
| 20260503033037 | 60 | 120 | 5.2 | 8.7 | 0.00 | 0.00 | 0.00 | 24 | 1013.8 |
| 20260503031531 | 60 | 130 | 3.5 | 8.7 | 0.00 | 0.00 | 0.00 | 24 | 1013.7 |
| 20260503030041 | 61 | 110 | 2.6 | 7.0 | 0.00 | 0.00 | 0.00 | 23 | 1013.8 |